Regional Weather Roundup
Issued by NWS Portland, ME

Current Version | Previous Version | Text Only | Print | Product List | Glossary Off
Versions: 1 2 3 4 5 6 7 8 9 10 11 12 13 14 15 16 17 18 19 20 21 22 23 24 25 26 27 28 29 30 31 32 33 34 35 36 37 38 39 40 41 42 43 44 45 46 47 48 49 50
000 ASUS41 KGYX 212305 RWRGYX WEATHER ROUNDUP FOR MAINE AND NEW HAMPSHIRE NATIONAL WEATHER SERVICE GRAY ME 600 PM EST MON JAN 21 2019 MEZ002-005-006-010-012-015-018-020-021-024-026-027-029-220000- MAINE CITY SKY/WX TMP DP RH WIND PRES REMARKS PORTLAND LGT SNOW 2 -10 57 NW17G31 29.88R WCI -18 SANFORD FLURRIES 0 -10 63 W12 29.89R WCI -17 BAR HARBOR FLURRIES 3 -4 72 NW13G18 29.73R WCI -14 WISCASSET CLOUDY 1 -9 62 NW9 29.86R HAZE ROCKLAND FLURRIES 3 -7 63 NW15G24 29.78R WCI -16 FRYEBURG CLOUDY -1 -12 59 CALM 29.86R LEWISTONAUBURN FLURRIES 0 -12 57 NW26 29.85R WCI -25 AUGUSTA CLOUDY 0 -12 57 NW15G22 29.81R WCI -19 WATERVILLE FLURRIES 0 -7 72 MISG 29.76R BANGOR FLURRIES 3 -6 66 NW14G22 29.75R WCI -15 GREENVILLE N/A -5 -13 68 NW14G24 29.62R WCI -25 MILLINOCKET LGT SNOW 2 -6 69 NW10G17 29.71R WCI -14 HOULTON LGT SNOW 4 -3 73 NW12G20 29.63R WCI -12 PRESQUE ISLE FLURRIES 4 -3 73 NW12G21 29.66R WCI -12 FRENCHVILLE FLURRIES 4 -5 66 NW21G28 29.60R WCI -17 CARIBOU CLOUDY 5 -4 66 NW12G20 29.63R WCI -11 $$ NHZ002-005-008-009-011-012-014-220000- NEW HAMPSHIRE CITY SKY/WX TMP DP RH WIND PRES REMARKS PORTSMOUTH CLOUDY 1 -14 48 NW23G31 29.89R WCI -22 ROCHESTER CLOUDY 0 -13 54 NW23G32 29.87R WCI -23 MANCHESTER CLOUDY 3 -9 57 NW18G31 29.93R WCI -17 CONCORD CLOUDY 0 -9 65 NW22G31 29.93R HAZE WCI -23 LACONIA FLURRIES -2 -11 65 NW12 29.92R WCI -20 PLYMOUTH LGT SNOW -1 -9 68 N8G17 29.94R BERLIN LGT SNOW -5 -13 68 VRB5 29.83R WHITEFIELD LGT SNOW -5 -12 72 W6 29.89R JAFFREY CLOUDY 0 -9 65 NW9G23 29.88R HAZE KEENE FLURRIES 1 -10 60 W10 29.99R WCI -15 LEBANON CLOUDY 1 -10 60 NW8 29.98R MT WASHINGTON BLWGSNOW -29 -29 100 NW81G96 N/A VSB 0 WCI -80 $$ VTZ005-007-008-220000- VERMONT CITY SKY/WX TMP DP RH WIND PRES REMARKS ST JOHNSBURY N/A -3 -11 68 MISG 29.95R MONTPELIER MIX PCPN -4 -11 72 NW18G29 29.97R WCI -26 BURLINGTON MOCLDY 1 -11 57 W13 30.11R WCI -17 $$ MAZ007-012-024-CTZ003-RIZ002-NYZ038-NYZ072-220000- SOUTHERN NEW ENGLAND AND NY CITY SKY/WX TMP DP RH WIND PRES REMARKS BOSTON LGT SNOW 6 -5 60 W22G30 29.94R WCI -15 WORCESTER CLOUDY 0 -12 57 NW20G30 29.87R WCI -22 NANTUCKET FLURRIES 6 -4 63 NW23G36 29.91R WCI -15 PROVIDENCE MOCLDY 4 -8 57 NW16G24 29.99R WCI -15 HARTFORD MOCLDY 4 -12 48 N18G31 30.05R WCI -16 ALBANY MOCLDY 3 -12 49 NW24G36 30.19R WCI -20 NEW YORK CITY FAIR 14 -3 47 NW31G41 30.20R WCI -7 $$ ANZ081-ANZ082-ANZ150-NHZ014-MEZ023>029-220000- COASTAL MARINE OBSERVATIONS STATION/POSITION TIME TEMP WIND PRES WAVE AIR SEA DIR/SP/G HT/PER (UTC) (F) (DEG/KT/KT) (MB) (FT/S) MOUNT DESERT ROC 2300 8 300/ 28/ 33 1005.9R MATINICUS ROCK 2200 8 320/ 24/ 28 1006.1R ISLE OF SHOALS 2200 3 310/ 28/ 32 1010.6R JEFFREYS LEDGE 2238 43 N/A 8/ 6 CASHES LEDGE BUO 2250 11 40 1008.0R 9/ 6 $$ .............KEY.............. WCI - WIND CHILL TC - TEMPERATURE IN CELSIUS VSB - VISIBILITY IN MILES HX - HEAT INDEX FAIR- INDICATES FEW OR NO CLOUDS BELOW 12,000 FT, WITH NO SIGNIFICANT WEATHER AND/OR OBSTRUCTIONS TO VISIBILITY.

USA.gov is the U.S. government's official web portal to all federal, state and local government web resources and services.